LFBO

Toulouse-Blagnac Airport

Airport
ICAO code
LFBO
IATA Code
TLS
Summary
ICAO Region
EUR
ICAO Territory
Location

Blagnac, Midi-Pyrenees

Serving
Toulouse
Elevation
497 ft
Coordinates
43° 37' 35" N , 1° 21' 52" E
KCC
Metar
Observation
LFBO 030300Z AUTO 01003KT 5000 BR NSC 05/04 Q1011 TEMPO 0600 FG VV///
Station
Toulouse / Blagnac
Date/Time
2022-12-03 03:00:00
Wind direction
10°
Wind speed
03 kts
Lowest cloud amount
nil significant cloud
Temperature
5°C
Dew point
4°C
Humidity
93%
QNH
1011 hPa
Weather condition
n/a

Description

International airport serving city of Toulouse, France.

Climatology

Temperate Marine climate/Oceanic climate (Köppen climate classification Cfb). Moderately cool summer and comparatively warm winter with a temperature range of only 14°C. Prevailing south-westerly winds from the Atlantic Ocean.

Runways

Designator Length Width Surface Rops
14L/32R 3000 45 ASP Yes/Yes
14R/32L 3500 45 ASP Yes/Yes

Airport map

Aerial View

Airport accidents

SKYbrary Partners:

Safety knowledge contributed by: